Hourly Weather Darwin

Today, 13 July, Monday

Time Temperature Precipitation Wind Pressure Humidity
00:00 +25°C° 0 mm 3 mps 759 mmHg 43%
01:00 +23°C° 0 mm 4 mps 759 mmHg 44%
02:00 +22°C° 0 mm 5 mps 759 mmHg 45%
03:00 +21°C° 0 mm 6 mps 759 mmHg 46%
04:00 +20°C° 0 mm 6 mps 760 mmHg 48%
05:00 +19°C° 0 mm 6 mps 760 mmHg 50%
06:00 +19°C° 0 mm 6 mps 760 mmHg 52%
07:00 +21°C° 0 mm 7 mps 760 mmHg 44%
08:00 +23°C° 0 mm 7 mps 761 mmHg 37%
09:00 +26°C° 0 mm 7 mps 761 mmHg 27%
10:00 +28°C° 0 mm 7 mps 761 mmHg 24%
11:00 +30°C° 0 mm 6 mps 760 mmHg 22%
12:00 +33°C° 0 mm 6 mps 760 mmHg 19%
13:00 +34°C° 0 mm 5 mps 759 mmHg 19%
14:00 +35°C° 0 mm 4 mps 759 mmHg 19%
15:00 +35°C° 0 mm 4 mps 758 mmHg 19%
16:00 +33°C° 0 mm 3 mps 758 mmHg 21%
17:00 +31°C° 0 mm 3 mps 758 mmHg 23%
18:00 +29°C° 0 mm 2 mps 758 mmHg 25%
19:00 +27°C° 0 mm 3 mps 759 mmHg 25%
20:00 +25°C° 0 mm 3 mps 759 mmHg 25%
21:00 +23°C° 0 mm 4 mps 760 mmHg 23%
22:00 +22°C° 0 mm 5 mps 760 mmHg 24%
23:00 +21°C° 0 mm 6 mps 760 mmHg 25%

Tomorrow, 14 July, Tuesday

Time Temperature Precipitation Wind Pressure Humidity
00:00 +20°C° 0 mm 7 mps 760 mmHg 26%
01:00 +19°C° 0 mm 6 mps 760 mmHg 29%
02:00 +17°C° 0 mm 6 mps 760 mmHg 32%
03:00 +16°C° 0 mm 5 mps 760 mmHg 35%
04:00 +15°C° 0 mm 6 mps 760 mmHg 37%
05:00 +15°C° 0 mm 6 mps 760 mmHg 39%
06:00 +14°C° 0 mm 6 mps 760 mmHg 42%
07:00 +16°C° 0 mm 6 mps 761 mmHg 39%
08:00 +18°C° 0 mm 7 mps 761 mmHg 36%
09:00 +21°C° 0 mm 7 mps 761 mmHg 33%
10:00 +24°C° 0 mm 6 mps 761 mmHg 28%
11:00 +28°C° 0 mm 5 mps 760 mmHg 22%
12:00 +32°C° 0 mm 4 mps 759 mmHg 16%
13:00 +33°C° 0 mm 4 mps 759 mmHg 16%
14:00 +34°C° 0 mm 3 mps 758 mmHg 16%
15:00 +35°C° 0 mm 2 mps 758 mmHg 16%
16:00 +31°C° 0 mm 2 mps 758 mmHg 24%
17:00 +28°C° 0 mm 2 mps 758 mmHg 33%
18:00 +25°C° 0 mm 2 mps 758 mmHg 42%
19:00 +24°C° 0 mm 2 mps 759 mmHg 45%
20:00 +21°C° 0 mm 2 mps 759 mmHg 48%
21:00 +20°C° 0 mm 2 mps 759 mmHg 52%
22:00 +20°C° 0 mm 2 mps 759 mmHg 45%
23:00 +19°C° 0 mm 2 mps 760 mmHg 39%

Day after tomorrow, 15 July, Wednesday

Time Temperature Precipitation Wind Pressure Humidity
00:00 +19°C° 0 mm 2 mps 760 mmHg 33%
01:00 +18°C° 0 mm 3 mps 759 mmHg 36%
02:00 +18°C° 0 mm 4 mps 759 mmHg 39%
03:00 +17°C° 0 mm 4 mps 759 mmHg 43%
04:00 +16°C° 0 mm 5 mps 759 mmHg 49%
05:00 +16°C° 0 mm 5 mps 759 mmHg 55%
06:00 +16°C° 0 mm 5 mps 759 mmHg 61%
07:00 +19°C° 0 mm 5 mps 760 mmHg 58%
08:00 +21°C° 0 mm 5 mps 760 mmHg 55%
09:00 +23°C° 0 mm 5 mps 761 mmHg 52%
10:00 +27°C° 0 mm 4 mps 760 mmHg 47%
11:00 +29°C° 0 mm 4 mps 759 mmHg 41%
12:00 +33°C° 0 mm 3 mps 759 mmHg 36%
13:00 +34°C° 0 mm 3 mps 758 mmHg 34%
14:00 +35°C° 0 mm 3 mps 757 mmHg 32%
15:00 +36°C° 0 mm 3 mps 756 mmHg 30%
16:00 +33°C° 0 mm 3 mps 756 mmHg 41%
17:00 +29°C° 0 mm 2 mps 756 mmHg 52%
18:00 +26°C° 0 mm 2 mps 757 mmHg 62%
19:00 +25°C° 0 mm 2 mps 757 mmHg 68%
20:00 +24°C° 0 mm 2 mps 758 mmHg 75%
21:00 +21°C° 0 mm 3 mps 758 mmHg 81%
22:00 +21°C° 0 mm 3 mps 758 mmHg 76%
23:00 +21°C° 0 mm 3 mps 758 mmHg 71%

16 July, Thursday

Time Temperature Precipitation Wind Pressure Humidity
00:00 +20°C° 0 mm 3 mps 759 mmHg 67%
01:00 +21°C° 0 mm 4 mps 758 mmHg 62%
02:00 +21°C° 0 mm 5 mps 758 mmHg 58%
03:00 +21°C° 0 mm 6 mps 758 mmHg 53%
04:00 +20°C° 0 mm 6 mps 758 mmHg 58%
05:00 +19°C° 0 mm 6 mps 758 mmHg 62%
06:00 +16°C° 0 mm 5 mps 759 mmHg 67%
07:00 +20°C° 0 mm 6 mps 759 mmHg 57%
08:00 +22°C° 0 mm 6 mps 759 mmHg 47%
09:00 +26°C° 0 mm 6 mps 760 mmHg 37%
10:00 +29°C° 0 mm 6 mps 759 mmHg 33%
11:00 +32°C° 0 mm 5 mps 759 mmHg 30%
12:00 +35°C° 0 mm 4 mps 758 mmHg 26%
13:00 +35°C° 0 mm 4 mps 758 mmHg 25%
14:00 +36°C° 0 mm 4 mps 757 mmHg 25%
15:00 +37°C° 0 mm 5 mps 756 mmHg 24%
16:00 +34°C° 0 mm 4 mps 756 mmHg 33%
17:00 +31°C° 0 mm 3 mps 756 mmHg 43%
18:00 +28°C° 0 mm 2 mps 756 mmHg 52%
19:00 +26°C° 0 mm 2 mps 757 mmHg 58%
20:00 +25°C° 0 mm 2 mps 757 mmHg 63%
21:00 +23°C° 0 mm 1 mps 758 mmHg 68%
22:00 +23°C° 0 mm 2 mps 758 mmHg 68%
23:00 +21°C° 0 mm 2 mps 758 mmHg 69%

17 July, Friday

Time Temperature Precipitation Wind Pressure Humidity
00:00 +21°C° 0 mm 2 mps 758 mmHg 69%
01:00 +20°C° 0 mm 2 mps 758 mmHg 67%
02:00 +20°C° 0 mm 2 mps 758 mmHg 64%
03:00 +20°C° 0 mm 2 mps 757 mmHg 62%
04:00 +19°C° 0 mm 3 mps 758 mmHg 62%
05:00 +19°C° 0 mm 3 mps 758 mmHg 63%
06:00 +19°C° 0 mm 4 mps 758 mmHg 63%
07:00 +21°C° 0 mm 4 mps 759 mmHg 56%
08:00 +23°C° 0 mm 4 mps 759 mmHg 50%
09:00 +26°C° 0 mm 4 mps 759 mmHg 43%
10:00 +28°C° 0 mm 4 mps 759 mmHg 36%
11:00 +31°C° 0 mm 3 mps 759 mmHg 30%
12:00 +35°C° 0 mm 3 mps 758 mmHg 23%
13:00 +35°C° 0 mm 3 mps 757 mmHg 23%
14:00 +36°C° 0 mm 4 mps 757 mmHg 23%
15:00 +37°C° 0 mm 4 mps 756 mmHg 23%
16:00 +33°C° 0 mm 3 mps 756 mmHg 33%
17:00 +29°C° 0 mm 3 mps 756 mmHg 43%
18:00 +26°C° 0 mm 2 mps 756 mmHg 53%
19:00 +25°C° 0 mm 2 mps 757 mmHg 57%
20:00 +23°C° 0 mm 2 mps 757 mmHg 61%
21:00 +22°C° 0 mm 1 mps 758 mmHg 65%
22:00 +22°C° 0 mm 1 mps 758 mmHg 67%
23:00 +21°C° 0 mm 1 mps 758 mmHg 70%

18 July, Saturday

Time Temperature Precipitation Wind Pressure Humidity
00:00 +20°C° 0 mm 1 mps 758 mmHg 72%
01:00 +20°C° 0 mm 1 mps 758 mmHg 73%
02:00 +20°C° 0 mm 1 mps 758 mmHg 73%
03:00 +20°C° 0 mm 1 mps 758 mmHg 74%
04:00 +20°C° 0 mm 1 mps 758 mmHg 77%
05:00 +20°C° 0 mm 1 mps 758 mmHg 79%
06:00 +20°C° 0 mm 1 mps 759 mmHg 82%
07:00 +21°C° 0 mm 2 mps 759 mmHg 74%
08:00 +24°C° 0 mm 2 mps 759 mmHg 66%
09:00 +26°C° 0 mm 3 mps 759 mmHg 59%
10:00 +29°C° 0 mm 2 mps 759 mmHg 49%
11:00 +31°C° 0 mm 2 mps 758 mmHg 39%
12:00 +34°C° 0 mm 1 mps 758 mmHg 29%
13:00 +35°C° 0 mm 2 mps 757 mmHg 29%
14:00 +35°C° 0 mm 3 mps 756 mmHg 29%
15:00 +35°C° 0 mm 3 mps 756 mmHg 28%
16:00 +33°C° 0 mm 3 mps 756 mmHg 37%
17:00 +29°C° 0 mm 3 mps 756 mmHg 47%
18:00 +27°C° 0 mm 2 mps 756 mmHg 56%
19:00 +25°C° 0 mm 2 mps 756 mmHg 60%
20:00 +24°C° 0 mm 2 mps 757 mmHg 64%
21:00 +21°C° 0 mm 2 mps 758 mmHg 69%
22:00 +22°C° 0 mm 1 mps 758 mmHg 71%
23:00 +21°C° 0 mm 1 mps 758 mmHg 74%
Show more